Hourly Data Report for April 10, 2018

CLYDE RIVER A
NUNAVUT
Current Station Operator: NAVCAN

70°29'09.000" N
68°31'01.000" W
26.50 m
2400804
71090
YCY

Download Data

Hourly Data (April 2018)
Hourly Data Report for April 10, 2018
TIME
LST
Temp Definition
°C
Dew Point Definition
°C
Rel Hum Definition
%
Precip. Amount Definition
mm

Wind Dir Definition
10's deg

Wind Spd Definition
km/h
Visibility Definition
km
Stn Press Definition
kPa
Hmdx Definition


Wind Chill Definition


Weather Definition


00:00 -23.6 -25.6 84 0.0 25 11 16.1 100.19   -32 LegendNANA
01:00 -24.9 -27.2 82 0.0 25 13 16.1 100.15   -34 LegendNANA
02:00 -25.7 -27.8 83 0.0 26 8 16.1 100.10   -33 LegendNANA
03:00 -24.8 -27.0 83 0.0 28 8 16.1 100.08   -32 LegendNANA
04:00 -24.5 -27.1 79 0.0 28 5 16.1 100.07   -29 LegendNANA
05:00 -25.7 -28.2 80 0.0 25 5 16.1 100.07   -31 LegendNANA
06:00 -25.7 -28.1 81 0.0 29 5 16.1 100.06   -31 LegendNANA
07:00 -22.6 -25.3 79 0.0 28 11 16.1 100.05   -31 LegendNANA
08:00 -23.0 -25.7 79 0.0 28 9 16.1 100.04   -30 LegendNANA
09:00 -21.7 -24.9 76 0.0 30 13 16.1 100.03   -30 LegendNANA
10:00 -20.1 -23.3 76 0.0 31 13 16.1 100.02   -29 LegendNANA
11:00 -19.7 -22.8 77 0.0 33 5 16.1 100.02   -24 LegendNANA
12:00 -18.7 -21.6 78 0.0 31 11 16.1 100.00   -26 LegendNANA
13:00 -18.0 -21.4 75 0.0 32 9 16.1 99.99   -24 LegendNANA
14:00 -19.2 -22.1 78 0.0 33 15 16.1 100.02   -28 LegendNANA
15:00 -19.0 -21.9 78 0.0 32 11 16.1 100.05   -26 LegendNANA
16:00 -19.9 -23.0 77 0.0 32 15 16.1 100.09   -29 LegendNANA
17:00 -20.7 -23.7 77 0.0 31 21 16.1 100.08   -32 LegendNANA
18:00 -22.9 -25.8 78 0.0 30 21 16.1 100.10   -34 LegendNANA
19:00 -23.6 -26.4 79 0.0 30 21 16.1 100.11   -35 LegendNANA
20:00 -23.9 -26.6 79 0.0 28 5 16.1 100.12   -29 LegendNANA
21:00 -24.9 -27.7 78 0.0 24 8 16.1 100.11   -32 LegendNANA
22:00 -25.2 -27.9 79 0.0 23 11 16.1 100.11   -34 LegendNANA
23:00 -24.3 -27.0 79 0.0 27 15 16.1 100.14   -34 LegendNANA

Notes on Data Quality.

Legend

  • E = Estimated
  • M = Missing
  • NA = Not Available*
  • [empty] = Indicates an unobserved value
Date modified: